Cloud_Cover
99 98 100 100 100 100 100 100 100 100 100 100 100 100 100 100 100 98 19 5 0 0 0 0 0 0 0 0 0 0 0 0 0 0 0 0 0 0 0 0 0 0 0 0 0
100 100 100 100 100 100 100 100 100 100 100 100 100 100 100 100 100 24 12 2 0 0 0 0 1 0 0 0 0 0 0 0 0 0 0 0 0 0 0 0 0 0 0 0 0
100 100 100 100 100 100 100 100 100 100 100 100 100 100 100 98 85 13 0 0 0 0 0 1 5 5 3 4 5 0 0 0 0 0 0 0 0 0 0 0 0 0 0 0 0
100 100 100 100 100 100 100 100 100 100 100 100 99 70 94 80 10 0 0 0 3 0 0 3 0 5 7 3 5 5 5 1 0 0 0 0 0 0 0 0 0 0 0 0 0
100 100 100 100 100 100 100 100 42 39 98 82 80 69 13 5 5 0 2 5 0 0 0 1 5 5 25 5 3 5 8 8 1 0 0 0 0 0 0 0 0 0 0 0 0
100 100 100 100 100 100 100 100 37 38 14 34 18 5 5 5 5 5 5 5 4 4 5 5 5 5 0 2 15 59 98 76 0 0 0 0 0 0 0 0 0 0 0 0 0
100 100 100 100 100 100 100 90 37 35 72 8 75 5 6 5 5 5 5 5 7 5 5 33 5 3 0 3 5 6 8 5 2 1 0 0 0 0 0 0 0 0 0 0 0
100 100 100 100 100 100 100 100 98 26 11 92 50 54 32 8 38 9 5 5 5 5 6 5 5 5 5 5 5 5 4 6 5 5 0 0 0 0 0 0 0 0 0 0 0
100 100 100 100 100 100 100 100 100 100 84 60 86 95 12 30 60 7 18 10 5 5 5 5 5 18 5 5 5 0 5 6 5 0 0 0 0 0 0 0 0 0 0 0 0
100 100 100 100 100 100 100 100 100 100 100 83 99 32 62 55 34 10 13 45 9 5 5 5 22 23 62 5 5 5 5 32 5 1 1 2 4 0 0 0 0 0 0 0 1
100 100 100 100 100 100 100 100 100 100 100 100 100 100 50 55 17 38 28 47 60 82 19 5 24 100 31 5 5 5 5 72 55 5 0 5 5 0 5 5 3 0 0 0 0
100 100 100 100 100 100 100 100 100 100 100 100 100 100 100 100 58 64 100 98 20 52 44 60 100 100 100 96 36 5 5 75 71 5 0 0 5 5 0 5 5 10 0 0 0
100 100 100 100 100 100 100 100 100 100 100 100 100 100 100 100 100 100 100 100 100 100 100 100 100 100 100 100 100 62 78 99 19 19 0 0 2 8 53 4 0 5 5 0 0
100 100 100 100 100 100 100 100 100 100 100 100 100 100 100 100 100 100 100 100 100 100 100 100 100 100 100 100 100 71 84 49 12 3 0 0 0 34 100 100 84 3 0 5 4
100 100 100 100 100 100 100 100 100 100 100 100 100 100 100 100 100 100 100 100 100 100 100 100 100 100 100 100 100 100 100 40 5 0 0 0 0 91 100 100 100 5 0 0 5
100 100 100 100 100 100 100 100 100 100 100 72 100 100 100 100 100 100 100 100 100 100 100 100 100 100 100 100 100 100 53 28 5 0 0 0 0 57 97 100 100 49 0 0 0
100 100 100 100 100 100 100 100 100 100 100 100 100 100 100 100 100 100 100 100 100 100 100 100 100 100 100 100 100 100 100 9 2 0 0 0 0 40 87 89 65 98 4 0 0
100 100 100 100 100 100 100 100 100 100 84 5 65 99 100 100 100 100 100 100 100 100 100 100 100 100 100 100 100 100 90 43 10 3 0 0 0 0 8 43 6 5 57 4 3
100 100 100 100 100 100 100 100 82 100 62 99 40 23 68 100 100 100 100 100 100 100 100 100 100 100 100 100 100 100 100 100 87 27 12 0 0 0 0 14 4 0 9 98 36
100 100 100 100 100 100 100 100 89 23 96 95 84 89 98 68 100 98 95 94 100 100 100 100 100 100 100 100 100 100 65 40 14 1 4 0 0 0 5 5 10 0 3 5 5
100 100 100 100 100 100 100 97 8 80 99 94 62 72 78 100 100 78 36 6 100 100 100 100 100 92 51 61 73 24 5 4 11 2 5 4 0 0 5 5 5 5 5 5 5
100 69 100 100 100 100 100 100 96 18 100 100 87 78 72 87 100 100 99 100 100 100 100 100 100 8 5 5 5 5 4 5 5 5 79 2 0 5 0 3 5 0 5 2 5
45 5 70 100 100 100 100 100 77 100 100 100 100 99 100 100 100 54 77 100 100 100 100 100 100 21 6 30 53 60 100 100 100 88 5 2 1 81 0 3 5 0 0 0 0
46 31 48 100 100 100 99 100 100 100 100 100 100 100 100 100 97 49 5 100 100 100 100 100 100 100 49 63 36 32 9 49 99 8 4 0 2 5 78 5 5 0 0 0 0
96 18 7 96 34 94 100 100 100 100 100 100 100 100 100 100 100 36 5 14 94 100 100 100 100 100 100 100 100 47 21 94 43 4 7 0 1 93 100 96 4 4 1 2 0
100 5 5 5 72 91 48 73 97 100 100 100 100 100 100 100 100 100 45 100 100 100 100 100 100 100 100 96 100 84 51 93 100 15 82 64 19 100 100 99 6 6 3 1 0
100 100 98 27 5 76 54 67 6 85 100 100 100 100 100 100 100 100 100 100 100 100 100 100 100 100 100 98 100 100 6 8 75 26 5 4 54 100 100 100 98 98 100 73 14